HULIANWANG DIGUI-104

导读 | 豆包AI

HULIANWANG DIGUI-104是中国于2025年11月10日发射的卫星,属于低轨互联卫星星座组网卫星。该卫星延续中国低轨卫星互联网技术路线,搭载星上处理载荷与相控阵天线,可提供全球覆盖的宽带互联服务,推动天地一体化网络建设,为海事通信、航空组网、偏远区域联网等场景提供稳定的空间基础设施支撑。

Basic Information
目录编号:
66420
目录名称:
HULIANWANG DIGUI-104
国际标识:
2025-258J
轨道中心:
EARTH
卫星名称:
HULIANWANG DIGUI-104
卫星全名:
HULIANWANG DIGUI-104
卫星状态:
在轨 (已飞行124 天)
发射日期:
2025-11-10 UTC
国别 :
中国 (CN)
星等 :
--
Orbit Information
数据来源 国际轨道数据 AOE轨道数据
星历时间 2026-03-13T22:51:34+0800
12小时前
查看轨道信息
2026-03-11T03:00:00+0800
3天前
查看轨道信息
半长轴 7527.415km 7527.415km
偏心率 0.0000518 0.000047
轨道倾角 50.002° 50.003°
近地点辐角 134.071° 133.243°
升交点赤经 278.077° 288.219°
平近点角 226.021° 7.259°
近地点 1148.888km 1148.924km
远地点 1149.668km 1149.632km
周期 108.325分钟 108.325分钟
每日圈数 13.293338 13.293337
Detailed Information
使用方式:
暂无
2D Orbit Map
3D Orbit Map
Orbit Altitude Analysis Chart
Orbit Inclination Analysis Chart
Orbit Comprehensive Analysis Chart
View Comprehensive Chart